Погода в Канске

Погода в Канске : погода сейчас, прогноз погоды и архив. Всё, что Вы хотите узнать о погоде в Канске!

Хотите узнать прогноз погоды в Канске? Тогда Вам сюда: Погода в Канске

Поиск расширенной информации на нашем сайте:

Другие новости

Новости СМИ2

Главная страница сайта

Новости сайта

03.07.2017

Напоминаем, что на нашем специализированном сайте Метеоцентр.Азия вы можете получить высокодетализированные автоматические прогнозы погоды по пунктам России, СНГ и мира в авиационном формате (включающие направление и скорость ветра, видимость, явления погоды, количество и форму облачности, нижнюю и верхнюю границу облачности).


Погода в Канске - сегодня

Время (UTC), дата Ветер
(°,м/с) 
Видим.   Явления Облачность Т
(°С)
Тd
(°С)
f(%) Тe
(°С)
Pmin
(гПа)
dP
(гПа)
Po
(мм)
O2
(г/м3)
Тmin Tmax R s Состояние
почвы
03 18.11.17 120 (ЮВ) 20000 м    9/0 средняя 
[Ac As]
-5 -7.4 83 -5  1026.9  -0.1  751  309           
06 18.11.17 280 (З) 20000 м    9/3 600 м кучево-дожд., средняя 
[Cb cap|Ac trans]
-1.9 -5.7 75 -3  1025.9  -0.7  750  305           
09 18.11.17 270 (З) 20000 м    9/3 600 м кучево-дожд., средняя 
[Cb cap|Ac trans]
-2.4 -5 82 -2  1025.7  -0.2  750  305           
12 18.11.17 тихо ()   н/о    9/3 600 м кучево-дожд., средняя 
[Cb cap|Ac trans]
-3.1 -5.1 86 -3  1026  0.2  750  306    -1.2       
15 18.11.17 270 (З) н/о    10/3 600 м кучево-дожд., средняя 
[Cb cap|As op]
-1.5 -5.6 74 -1  1025.1  -0.7  749  304           
18 18.11.17 200 (Ю) н/о    10/3 600 м кучево-дожд., средняя 
[Cb cap|As op]
-2.6 -7.8 67 -2  1023.9  -1.3  749  305           
21 18.11.17 120 (ЮВ) н/о    10/3 600 м кучево-дожд., средняя 
[Cb cap|As op]
-6.5 -9.3 80 -8  1022.5  -1.6  747  309           
00 19.11.17 110 (В) н/о    10/0 средняя 
[As trans]
-8.5 -10.4 86 -10  1021.5  -1.2  746  311  -9.5      равномерный
мокрый или
старый снег
100% 
03 19.11.17 120 (ЮВ) 20000 м    9/0 средняя 
[Ac trans]
-6.1 -8.4 84 -8  1019.4  -1.9  745  308           
06 19.11.17 160 (Ю) 20000 м    9/0 средняя 
[Ac trans]
-0.8 -7.7 59 -2  1017.3  -1.5  744  301           
09 19.11.17 250 (З) 20000 м    9/0 средняя 
[Ac trans]
+0.7 -7.8 53 -1  1017.1  744  300           
12 19.11.17 250 (З) н/о    9/0 средняя, верхняя 
[Ac trans|Ci fib]
-1.9 -5.4 77 -5  1019.4  1.9  745  303    +1.1       
15 19.11.17 240 (ЮЗ) н/о    9/4 600 м кучево-дожд., средняя 
[Cb cap|Ac trans]
-0.8 -3.3 83 -4  1020  0.8  746  302           
18 19.11.17 230 (ЮЗ) н/о    9/5 600 м кучево-дожд., средняя 
[Cb cap|Ac trans]
-2.4 -4.6 85 -4  1020.5  0.3  746  304           
21 19.11.17 260 (З) 4{10}  н/о  слаб. ливневой снег  9/6 600 м кучево-дожд., средняя 
[Cb cap|Ac As]
-2.3 -4.5 85 -5  1020.9  0.4  746  304           
00 20.11.17 280 (З) 4{10}  н/о  {ливн. осадки}  9/3 600 м кучево-дожд., верхняя 
[Cb cap|Ci fib]
-4.7 -8.7 74 -8  1023.6  2.3  748  308  -4.7    0.1  равномерный
сухой снег
100% 
03 20.11.17 250 (З) 20000 м    9/0 средняя, верхняя 
[Ac lent|Cs]
-6.2 -9.8 76 -10  1025.7  1.9  750  310  -7.4         
06 20.11.17 270 (З) 20000 м    10/4 1000 м средняя, верхняя 
[Sc|Ac trans|Cs]
-4.7 -8.7 74 -8  1025.5  750  308           
09 20.11.17 270 (З) 20000 м    9/5 600 м кучево-дожд., средняя 
[Cb cap|Ac trans]
-5.2 -8.1 80 -8  1026  0.4  750  309           
12 20.11.17 270 (З) н/о  слаб. ливневой снег  9/6 600 м кучево-дожд., средняя 
[Cb cap|Ac trans]
-7.2 -9.3 85 -10  1027.3  1.1  751  312    -4.7  0.0     
15 20.11.17 270 (З) н/о  {ливн. осадки}  6/4 600 м кучево-дожд., средняя 
[Cb cap|Ac trans]
-8.2 -10.9 81 -11  1028.6  1.2  752  313           
18 20.11.17 280 (З) н/о  {ливн. осадки}  9/5 600 м кучево-дожд., средняя 
[Cb cap|Ac trans]
-8.6 -11.4 80 -10  1029.3  0.6  752  314           
21 20.11.17 270 (З) н/о    9/4 600 м кучево-дожд., средняя 
[Cb cap|Ac trans]
-10.4 -13.2 80 -12  1030.8  1.3  753  317           
00 21.11.17 250 (З) н/о  слаб. ливневой снег  9/5 600 м кучево-дожд., средняя 
[Cb cap|Ac trans]
-10.1 -12.1 85 -12  1031.3  0.5  753  316  -10.6    0.0  равномерный
сухой снег
100% 
03 21.11.17 100 (В) 10 км  слаб. снег{ливн. осадки}  10/0 средняя 
[As op]
-9.5 -10.7 91 -9  1032  0.8  754  316           
Время (UTC), дата Ветер
(°,м/с) 
Видим.   Явления Облачность Т
(°С)
Тd
(°С)
f(%) Тe
(°С)
Pmin
(гПа)
dP
(гПа)
Po
(мм)
O2
(г/м3)
Тmin Tmax R s Состояние
почвы

Для получения пояснительной информации подведите курсор к названию столбца.

ПОГОДА в Канске - архив

Всё, что Вы хотите узнать о погоде в Канске - удобно и подробно!

Выберите нужную дату (начиная с 1 января 2015* года) и нажмите кнопку "Найти".
Будут отображены архивные сводки погоды по пункту Канск, начиная с указанной даты.


Отображать данные в формате CSV (для использования в таблицах Excel)


Внимание! Наш архив погоды предназначен исключительно для личного некоммерческого использования в познавательных целях. Если Вам необходимы официальные справки о состоянии погоды (для производственных, юридических, коммерческих и т.п. целей), обращайтесь в органы Росгидромета.

*Примечание: данная дата относится к архиву по метеостанциям СССР (Россия, СНГ, Балтия).
Архив по метеостанциям Зарубежной Европы и Азии (кроме Китая) хранится 10 дней, по другим регионам земного шара (Китай, Африка, Америка, Австралия, Океания) - 1 день.

Канск - район местоположения метеостанции


Название, широта, долгота, высота метеостанции:
Канск 56.2°ш. 95.6°д. 207 м над ур. моря [Российская Федерация]

Дополнительная информация

В oтличие oт бoльшинства пoгoдных сайтoв мы публикуем пoдрoбную метеoинфoрмацию в детальнoм прoфессиoнальнoм фoрмате.

Характеристики температуры и влажнoсти вoздуха измеряются на высoте 2 м в тени вдали oт зданий и деревьев.
Скoрoсть ветра измеряется на высoте 10 м (на урoвне рoста челoвека скoрoсть ветра ниже в 1.5-2 раза). Если метеoстанция нахoдится в гoрoде или в лесу, тo скoрoсть ветра занижена на 2-4 м/с пo сравнению с oткрытым местoм. Скoрoсть ветра над акватoриями крупных рек и oзёр, а также на вершинах хoлмoв на 2-5 м/с выше, чем в oбычных услoвиях.
Атмoсфернoе давление в разных тoчках местнoсти мoжет значительнo oтличаться oт давления на метеoстанции, в зависимoсти oт услoвий рельефа (при пoдъёме на 10 м давление пoнижается примернo на 1 мм рт.ст.).